Home > Weather > Philadelphia > Past weeks

Flag for U.S.A. Weather for the Past 2 Weeks in Philadelphia, Pennsylvania, U.S.A.

Now
41 °F

Overcast.


Feels Like: 35 °F
Forecast: 32 / 39 °F
Wind: 9 mph from Northeast

Location: Philadelphia International Airport

Current Time: Feb 8, 2016 at 10:34:46 AM

Latest Report: Feb 8, 2016 at 9:54 AM


Visibility: 10 mi

Pressure: 29.80 "Hg

Humidity: 58%

Dew point: 27 °F

Location of PhiladelphiaLocation

Historic Weather in Philadelphia — Graph

°F

Philadelphia Temperature Yesterday

Maximum temperature yesterday: 46 °F (at 1:54 PM)
Minimum temperature yesterday: 28 °F (at 6:54 AM)
Average temperature yesterday: 38 °F

High & Low Weather Summary for the Past Weeks

 TemperatureHumidityPressure
High62 °F (Feb 3, 10:54 AM)93% (Feb 4, 4:04 AM)30.46 "Hg (Feb 4, 4:04 AM)
Low21 °F (Jan 25, 2:54 AM)31% (Jan 27, 1:54 PM)29.53 "Hg (Jan 29, 4:54 AM)
Average40 °F60%30.05 "Hg
* Reported Jan 24 8:54 AM — Feb 8 8:54 AM, Philadelphia, Weather by CustomWeather, © 2016

Note: Actual official high and low records may vary slightly from our data, if they occured in-between our weather recording intervals... More about our weather records

Advertising

Philadelphia Weather History for the Previous 24 Hours

 ConditionsComfort  
Time TempWeatherWind HumidityBarometerVisibility
8:54 AM
Mon, Feb 8
39 °FOvercast.14 mph60%29.79 "Hg10 mi
7:54 AM39 °FMostly cloudy.10 mph60%29.78 "Hg10 mi
6:54 AM38 °FMostly cloudy.10 mph63%29.77 "Hg10 mi
5:54 AM38 °FMostly cloudy.13 mph58%29.76 "Hg10 mi
4:54 AM38 °FMostly cloudy.17 mph48%29.74 "Hg10 mi
3:54 AM39 °FOvercast.21 mph46%29.72 "Hg10 mi
2:54 AM39 °FMostly cloudy.18 mph50%29.75 "Hg10 mi
1:54 AM40 °FMostly cloudy.17 mph51%29.78 "Hg10 mi
12:54 AM40 °FMostly cloudy.15 mph53%29.81 "Hg10 mi
11:54 PM
Sun, Feb 7
41 °FMostly cloudy.15 mph49%29.86 "Hg10 mi
10:54 PM41 °FMostly cloudy.17 mph53%29.87 "Hg10 mi
9:54 PM40 °FPassing clouds.13 mph51%29.92 "Hg10 mi
8:54 PM40 °FPassing clouds.8 mph51%29.95 "Hg10 mi
7:54 PM40 °FPassing clouds.7 mph53%29.96 "Hg10 mi
6:54 PM42 °FPassing clouds.8 mph45%29.97 "Hg10 mi
5:54 PM41 °FPassing clouds.6 mph49%29.99 "Hg10 mi
4:54 PM43 °FPartly sunny.7 mph43%30.00 "Hg10 mi
3:54 PM45 °FOvercast.8 mph42%30.03 "Hg10 mi
2:54 PM46 °FOvercast.7 mph37%30.02 "Hg10 mi
1:54 PM46 °FOvercast.7 mph40%30.08 "Hg10 mi
12:54 PM45 °FOvercast.5 mph42%30.11 "Hg10 mi
11:54 AM44 °FPartly sunny.7 mph47%30.14 "Hg10 mi
10:54 AM42 °FPartly sunny.9 mph51%30.15 "Hg10 mi
Weather by CustomWeather, © 2016

See weather overviewHow to use our weather pages